Location: Unspecified
(0.0000°N, 0.0000°E)
Time: 09:45:26
(UTC+00:00)

Envisat - Pass Details

Date: 22 June 2017
Orbit: 764 x 766 km, 98.2° (Epoch: 16 October)

Event Time Altitude Azimuth Distance (km) Brightness Sun altitude
Exits shadow 19:35:18 13° 48° (NE) 2,076 5.0 -21.3°
Drops below altitude 10° 19:36:17 10° 38° (NE) 2,292 5.3 -21.5°
Sets 19:39:21 0° 18° (NNE) 3,214 6.3 -22.2°
